Location: Valley of Enchantment
(34.2467°N, 117.3048°W)
Time: 04:00:39
(UTC+00:00)

ARGOS - Pass Details

Date: 10 September 2024
Orbit: 818 x 834 km, 98.4° (Epoch: 09 October)

Event Time Altitude Azimuth Distance (km) Brightness Sun altitude
Rises 12:13:50 0° 17° (NNE) 3,352 6.8 -16.1°
Reaches altitude 10° 12:16:14 10° 21° (NNE) 2,417 6.1 -15.6°
Maximum altitude 12:21:30 58° 101° (E) 949 3.8 -14.6°
Drops below altitude 10° 12:26:44 10° 180° (S) 2,408 5.4 -13.5°
Sets 12:29:07 0° 184° (S) 3,338 6.1 -13.1°
